Strona główna
METAR-TAF:

METAR-TAF

Lotnisko :

Platforma wiertnicza

Euro, Holandia

Szerokość geograficzna: 51-59-52N, Długość geograficzna: 3-16-30E, wysokość: 18 m

Aktualna obserwacja pogody

Raport powstał 45 minut temu, godzina 05:55 UTC
Wiatr 14 kt od zachodnio-południowy zachód
Temperatura 7°C
Wilgotność 70%
Ciśnienie 1015 hPa
Widzialność 10 km lub więcej

METAR: EHSA 280555Z AUTO 24014KT 9999 ///////// 07/02 Q1015 W06/H17

czas: 07:40 (06:40 UTC)


TAF: brakujący

Obserwacja i prognoza pogody dla ponad 4000 lotnisk (raport METAR i TAF).

Dostępne stacje oznaczono żółtymi i czerwonymi punktami na mapie.

Najedź kursorem aby zobaczyć nazwę stacji.

Kliknij aby zobaczyć obserwacje i prognozy pogody.

Aby zmienić mapę: kliknij na zielony przycisk z czarnym krzyżykiem, aby powiększyć; na zielony przycisk z myślnikiem, aby pomniejszyć; na zielone strzałki, aby przejść do map sąsiednich.


METAR-TAF: